Terminal Aerodrome Forecast
Issued by NWS Missoula, MT

Home | Current Version | Previous Version | Text Only | Print | Product List | Glossary On
Versions: 1 2 3 4 5 6 7 8 9 10 11 12 13 14
000
FTUS45 KMSO 190520
TAFMSO
TAF
KMSO 190520Z 1906/2006 00000KT P6SM VCSH OVC080
     FM191200 00000KT 5SM BR OVC035=

USA.gov is the U.S. government's official web portal to all federal, state and local government web resources and services.